Location: Acheville
(50.3840°N, 2.8827°E)
Time: 12:34:49
(UTC+00:00)

Cosmos 1328 - Pass Details

Date: 24 October 2021
Orbit: 529 x 552 km, 82.5° (Epoch: 05 December)

Event Time Altitude Azimuth Distance (km) Brightness Sun altitude
Rises 17:17:23 0° 353° (N) 2,738 7.3 -6.8°
Reaches altitude 10° 17:19:37 10° 359° (N) 1,841 6.4 -7.2°
Maximum altitude 17:23:35 52° 76° (ENE) 693 4.0 -7.8°
Drops below altitude 10° 17:27:31 10° 154° (SSE) 1,829 6.3 -8.4°
Sets 17:29:43 0° 159° (SSE) 2,717 7.2 -8.8°
